Precipitable_Water
0.92 0.84 0.79 0.79 0.95 0.98 0.89 0.78 0.88 1.01 1.09 1.06 1.02 1.01 1.12 1.49 1.38 1.12 1.10 1.17 1.27 1.38 1.48 1.63 1.65 1.71 1.64 1.67 1.75 1.82 1.89 1.96 2.01 2.03 1.96 2.02 1.98 2.07 2.02 2.08 2.06 1.96 2.00 1.99
0.81 0.71 1.00 1.15 1.00 0.90 0.82 0.84 0.91 0.90 1.05 0.99 1.00 0.95 1.08 1.17 1.21 1.19 1.18 1.07 1.20 1.33 1.48 1.57 1.63 1.64 1.59 1.62 1.73 1.78 1.94 1.99 2.04 2.08 2.12 2.07 2.03 1.94 1.93 2.08 2.09 2.06 2.02 2.08
0.66 0.75 0.97 0.99 0.87 0.82 0.86 0.84 0.92 0.83 1.00 0.98 0.95 0.93 1.05 1.00 0.98 1.09 1.23 1.24 1.10 1.22 1.44 1.51 1.57 1.60 1.58 1.57 1.63 1.77 1.94 2.02 2.09 2.13 2.10 2.04 2.03 2.02 1.87 2.01 2.12 2.08 2.11 2.20
0.65 0.80 0.91 0.89 0.80 0.91 0.75 1.00 0.82 0.78 0.78 0.72 0.97 0.64 0.84 0.95 0.87 0.95 0.99 1.16 1.18 1.19 1.45 1.59 1.59 1.61 1.55 1.57 1.62 1.75 1.85 1.94 1.99 2.08 2.06 2.01 1.94 1.85 1.88 1.83 2.02 2.03 2.15 2.13
0.60 0.63 0.77 0.79 0.75 0.84 0.86 1.01 0.91 0.77 0.75 0.79 0.87 0.76 0.88 0.87 0.85 0.90 1.02 1.10 1.21 1.20 1.37 1.56 1.58 1.62 1.66 1.62 1.65 1.77 1.85 1.88 1.92 1.93 1.97 1.96 1.94 1.96 1.94 1.84 2.00 1.96 2.04 2.14
0.63 0.71 0.75 0.71 0.78 0.90 1.13 0.84 0.82 0.83 0.86 0.75 0.93 0.77 0.84 1.00 0.76 0.83 0.94 1.00 1.08 1.21 1.30 1.46 1.60 1.64 1.69 1.68 1.70 1.78 1.84 1.87 1.90 1.88 1.94 1.97 1.92 1.91 1.96 1.81 1.79 1.87 1.96 2.05
0.61 0.73 0.73 0.84 0.80 0.87 0.82 0.73 0.62 0.59 0.64 0.81 0.92 0.64 0.74 0.74 0.75 0.81 0.86 0.96 1.05 1.22 1.26 1.37 1.50 1.57 1.60 1.66 1.69 1.72 1.70 1.78 1.90 1.90 1.83 1.83 1.94 1.99 1.91 1.86 1.86 1.84 1.95 2.03
0.50 0.42 0.63 0.81 0.72 0.78 0.72 0.73 0.67 0.60 0.51 0.61 0.95 0.74 0.74 0.82 0.84 0.83 0.92 0.97 1.05 1.19 1.24 1.46 1.50 1.54 1.54 1.63 1.68 1.67 1.63 1.71 1.83 1.95 1.98 1.91 1.93 1.90 1.83 1.89 1.92 1.98 2.08 2.12
0.42 0.44 0.60 0.67 0.77 0.74 0.78 0.60 0.79 0.73 0.60 0.60 0.81 0.86 0.89 0.90 0.79 0.77 0.84 0.91 0.98 1.14 1.29 1.37 1.49 1.54 1.56 1.60 1.62 1.62 1.63 1.75 1.81 1.85 2.00 1.92 1.97 1.88 1.84 1.93 2.07 2.02 2.14 2.15
0.37 0.35 0.48 0.63 0.76 0.82 0.67 0.90 0.62 0.73 0.51 0.57 0.72 0.86 0.87 0.81 0.81 0.76 0.79 0.85 1.01 1.15 1.21 1.39 1.45 1.52 1.52 1.59 1.61 1.62 1.70 1.74 1.76 1.78 1.83 1.91 1.91 1.91 1.96 2.03 1.97 2.09 2.25 2.27
0.33 0.33 0.32 0.46 0.54 0.55 0.60 0.50 0.61 0.78 0.65 0.54 0.55 0.72 0.94 0.82 0.81 0.74 0.77 0.85 0.96 1.07 1.20 1.28 1.43 1.45 1.47 1.51 1.54 1.56 1.75 1.70 1.70 1.74 1.79 1.79 1.82 1.83 1.94 1.96 2.09 2.19 2.14 2.11
0.27 0.26 0.23 0.24 0.39 0.60 0.53 0.60 0.50 0.51 0.57 0.64 0.70 0.71 1.06 0.78 0.82 0.83 0.82 0.89 0.95 1.07 1.19 1.29 1.36 1.39 1.40 1.36 1.44 1.52 1.69 1.73 1.78 1.69 1.69 1.74 1.80 1.89 2.03 2.18 2.20 2.07 1.87 1.93
0.25 0.22 0.19 0.21 0.33 0.52 0.46 0.42 0.50 0.55 0.69 0.71 0.71 0.72 0.98 0.86 0.86 0.88 0.85 0.89 0.91 0.97 1.11 1.25 1.30 1.28 1.27 1.28 1.41 1.48 1.59 1.69 1.73 1.77 1.74 1.76 1.79 1.92 1.99 1.93 1.80 1.79 1.72 1.76
0.30 0.23 0.20 0.18 0.27 0.43 0.50 0.43 0.42 0.52 0.60 0.72 0.77 0.77 1.07 0.93 0.78 0.83 0.84 0.92 0.92 0.96 1.06 1.17 1.19 1.19 1.21 1.23 1.35 1.42 1.51 1.69 1.66 1.75 1.70 1.73 1.78 1.85 1.84 1.70 1.67 1.64 1.59 1.50
0.29 0.22 0.23 0.23 0.25 0.31 0.34 0.43 0.44 0.50 0.63 0.67 0.69 0.71 0.72 0.89 0.91 0.82 0.86 0.93 0.86 0.91 1.02 1.10 1.11 1.14 1.16 1.19 1.27 1.36 1.47 1.60 1.56 1.61 1.68 1.79 1.87 1.80 1.67 1.64 1.64 1.75 1.56 1.43
0.29 0.23 0.25 0.24 0.23 0.24 0.24 0.31 0.49 0.47 0.64 0.70 0.63 0.62 0.71 0.76 0.98 0.89 0.86 0.89 0.88 0.80 0.92 1.01 1.05 1.09 1.11 1.17 1.23 1.33 1.41 1.51 1.51 1.57 1.60 1.81 1.83 1.73 1.66 1.66 1.63 1.62 1.50 1.18
0.36 0.27 0.25 0.23 0.28 0.25 0.20 0.21 0.26 0.41 0.62 0.69 0.57 0.64 0.74 0.84 0.87 0.94 0.88 0.89 0.87 0.76 0.84 0.92 0.94 0.98 1.06 1.18 1.25 1.26 1.39 1.50 1.48 1.58 1.76 1.67 1.69 1.64 1.61 1.59 1.51 1.49 1.23 1.11
0.41 0.36 0.30 0.29 0.30 0.22 0.26 0.28 0.25 0.23 0.31 0.46 0.57 0.69 0.70 0.73 0.91 0.99 0.95 0.94 0.90 0.82 0.77 0.81 0.86 1.00 1.12 1.29 1.34 1.34 1.42 1.44 1.56 1.60 1.60 1.61 1.58 1.51 1.53 1.55 1.49 1.44 1.13 1.06
0.37 0.38 0.34 0.29 0.29 0.31 0.37 0.35 0.29 0.26 0.24 0.32 0.50 0.68 0.66 0.70 0.80 0.94 1.04 1.01 0.99 0.91 0.87 0.81 0.86 1.00 1.15 1.24 1.36 1.37 1.40 1.53 1.58 1.46 1.50 1.53 1.49 1.51 1.47 1.52 1.48 1.25 1.04 1.03
0.38 0.36 0.34 0.36 0.30 0.27 0.34 0.39 0.42 0.41 0.29 0.32 0.35 0.47 0.55 0.60 0.64 0.81 1.01 1.08 1.01 1.01 0.97 0.93 0.91 1.05 1.19 1.23 1.37 1.35 1.37 1.42 1.43 1.50 1.45 1.52 1.55 1.55 1.57 1.59 1.37 1.08 1.04 0.95
0.33 0.33 0.29 0.30 0.30 0.35 0.43 0.44 0.50 0.35 0.38 0.58 0.53 0.53 0.67 0.58 0.69 1.01 1.11 1.12 1.09 0.97 1.04 1.03 1.02 1.04 1.11 1.22 1.28 1.27 1.31 1.27 1.41 1.53 1.53 1.56 1.59 1.60 1.63 1.55 1.23 1.00 0.95 0.93
0.35 0.33 0.32 0.33 0.30 0.27 0.47 0.47 0.40 0.61 0.72 0.69 0.69 0.67 0.69 0.86 0.83 0.98 1.05 1.18 1.11 0.94 1.06 1.08 1.05 1.11 1.22 1.29 1.25 1.21 1.15 1.35 1.45 1.51 1.48 1.52 1.59 1.62 1.58 1.40 1.07 0.99 0.96 0.93
0.28 0.35 0.33 0.34 0.35 0.45 0.50 0.51 0.71 0.75 0.81 0.75 0.74 0.67 0.65 0.75 0.79 0.86 0.97 1.12 1.20 1.02 1.03 1.10 1.06 1.14 1.29 1.38 1.31 1.14 1.13 1.33 1.46 1.41 1.39 1.49 1.59 1.64 1.55 1.24 0.97 0.95 0.95 0.93
0.34 0.38 0.43 0.41 0.39 0.44 0.52 0.70 0.78 0.74 0.71 0.74 0.72 0.69 0.68 0.69 0.73 0.78 0.92 1.12 1.31 1.25 1.10 1.09 1.10 1.16 1.28 1.43 1.43 1.29 1.18 1.21 1.40 1.33 1.35 1.46 1.53 1.55 1.48 1.18 1.01 0.94 0.90 0.90
0.33 0.39 0.37 0.40 0.48 0.58 0.58 0.74 0.67 0.61 0.60 0.66 0.65 0.66 0.65 0.73 0.73 0.75 0.89 1.04 1.25 1.36 1.28 1.20 1.17 1.20 1.29 1.42 1.42 1.48 1.38 1.21 1.17 1.31 1.36 1.40 1.48 1.50 1.39 1.07 0.94 0.94 0.96 0.94
0.38 0.40 0.40 0.42 0.47 0.50 0.62 0.73 0.76 0.57 0.52 0.51 0.54 0.54 0.60 0.64 0.71 0.77 0.86 1.07 1.21 1.35 1.43 1.34 1.27 1.26 1.39 1.49 1.50 1.55 1.54 1.42 1.13 1.17 1.28 1.34 1.37 1.41 1.29 0.97 0.89 0.96 0.99 0.96
Wind_Speed
15 14 14 11 9 9 9 6 7 8 5 9 11 12 14 13 11 11 11 11 10 10 9 9 8 7 6 5 5 7 10 13 15 16 17 17 16 13 13 16 18 18 17 13
17 17 9 10 12 10 8 12 7 5 3 9 13 14 12 15 14 14 14 11 11 9 10 10 9 8 7 6 4 6 9 12 15 15 17 17 14 14 14 15 17 19 17 14
20 14 15 13 12 11 5 10 7 7 5 9 10 11 12 15 15 13 12 13 12 11 11 11 10 9 8 6 5 6 8 11 13 14 15 15 16 14 15 14 16 17 17 14
21 16 14 13 16 12 10 11 8 8 8 8 9 9 11 13 16 15 14 15 15 12 11 11 11 10 10 8 7 6 8 10 12 14 14 14 16 16 15 16 16 16 15 15
21 21 17 20 13 12 10 9 12 9 10 12 12 8 5 14 14 16 15 16 16 13 12 12 12 11 11 8 8 8 8 9 10 13 15 15 15 16 15 16 15 16 14 14
23 19 18 19 15 12 14 10 12 12 11 12 9 7 6 4 8 12 14 14 15 15 12 12 12 12 12 9 8 8 8 9 10 11 13 15 16 15 15 16 16 15 15 13
22 21 18 14 14 11 14 15 10 6 5 7 11 7 3 1 4 9 13 14 14 15 13 13 13 13 12 11 10 8 7 7 10 12 13 13 15 16 14 14 13 15 15 14
23 22 21 17 21 14 15 15 9 10 9 9 13 3 4 1 6 6 10 14 14 15 15 14 14 13 13 12 11 9 6 5 8 11 13 14 16 16 14 12 13 14 13 12
21 23 20 21 21 21 13 16 16 20 17 8 6 11 4 3 6 8 11 14 14 14 16 15 14 13 13 13 12 10 7 4 5 10 13 14 17 17 13 12 12 13 12 10
23 17 21 16 17 19 22 9 11 9 9 4 7 6 5 4 7 10 12 14 15 14 14 16 14 14 14 13 12 10 7 6 6 9 12 15 18 16 15 13 13 11 10 9
27 20 18 20 19 21 19 23 20 17 16 12 11 5 8 9 8 12 13 13 14 14 14 16 15 14 14 13 13 11 9 9 8 10 11 16 17 16 16 14 12 9 9 9
26 23 21 22 21 20 24 21 21 19 15 10 14 4 7 3 9 12 14 12 13 13 13 15 15 15 14 14 13 12 11 10 10 12 14 16 16 15 15 12 12 11 9 8
23 24 22 23 21 20 20 24 25 21 10 7 12 9 9 2 8 11 13 13 13 13 14 15 16 15 15 14 13 13 12 12 14 14 15 14 14 14 14 12 12 10 9 9
18 23 24 22 20 19 19 22 25 23 18 11 17 6 11 4 6 11 13 13 13 13 14 16 17 16 16 14 14 14 13 14 15 14 15 14 15 14 14 12 11 10 9 8
21 24 24 24 22 18 19 19 22 25 19 18 6 8 6 0 6 11 13 14 14 14 15 16 17 17 16 15 14 14 14 15 15 15 15 15 14 14 14 13 11 10 9 8
23 24 22 24 25 23 22 19 20 24 22 20 17 12 7 5 5 13 14 15 15 15 16 17 18 18 17 16 15 15 15 15 15 15 15 16 15 14 14 12 12 10 8 8
21 21 23 22 21 21 25 25 23 22 22 20 19 14 8 5 8 13 16 16 16 15 17 18 18 18 17 17 16 16 16 16 15 15 15 15 16 15 13 12 11 9 9 9
18 20 20 19 21 25 20 20 23 24 24 24 20 16 12 7 8 12 17 17 17 17 18 19 18 18 17 17 17 17 17 16 16 15 15 15 15 14 13 12 10 9 9 8
23 20 20 21 21 19 17 20 19 20 21 26 22 21 18 13 12 11 16 20 20 19 19 19 19 19 18 18 18 18 17 17 17 16 16 16 15 15 13 11 10 10 10 9
27 25 23 19 22 24 19 19 17 15 21 19 23 24 21 18 14 13 15 21 23 22 22 21 21 20 19 19 20 19 18 18 18 17 16 16 16 14 13 11 11 11 10 9
29 29 29 26 23 21 18 15 15 19 13 12 14 16 17 20 16 9 8 16 24 23 24 23 23 21 20 20 20 19 19 19 18 17 17 17 16 15 13 12 12 12 12 11
29 31 30 28 28 30 22 14 21 12 14 12 12 13 14 13 15 12 10 11 21 24 25 25 24 23 22 22 21 20 20 19 19 18 17 17 16 15 14 14 14 14 12 12
30 29 28 29 27 30 23 26 16 15 14 12 12 12 14 16 16 15 15 13 17 25 25 25 26 25 24 23 23 21 20 21 20 18 18 17 17 15 15 16 16 15 14 12
33 33 24 27 27 19 22 23 20 19 17 16 14 13 14 15 16 17 16 15 15 23 26 26 26 26 26 24 24 22 21 21 21 19 19 18 18 17 17 17 17 16 15 13
30 25 33 31 30 22 26 24 24 22 22 21 19 17 16 14 16 17 18 17 18 19 26 28 28 28 27 26 26 24 22 21 21 20 20 20 19 19 18 18 18 17 16 14
31 32 28 27 30 30 26 25 27 26 24 23 22 21 19 18 17 17 19 17 18 23 21 30 30 30 29 28 29 27 25 23 22 22 21 21 20 20 20 20 18 16 15 15
Wind_Direction
215 224 222 218 204 233 220 276 266 241 216 239 252 255 266 250 260 236 217 218 214 217 211 211 216 214 214 217 235 230 211 206 203 201 202 205 213 214 210 204 206 204 205 208
219 230 206 250 238 229 243 259 313 258 240 272 270 272 248 234 245 243 234 209 211 218 206 209 208 207 207 213 219 208 199 199 200 202 206 206 207 208 203 201 208 205 208 214
228 225 205 202 217 227 271 282 219 293 254 267 281 273 270 238 227 235 221 223 208 217 206 206 204 203 204 206 205 197 195 193 195 195 197 205 210 207 200 200 198 202 208 217
225 226 216 254 239 246 235 255 273 278 273 265 246 293 253 246 224 217 226 203 210 212 208 207 207 206 204 205 205 199 195 197 201 201 201 204 205 203 207 205 203 204 214 222
224 229 227 220 232 220 251 235 268 267 270 270 230 286 276 223 221 210 213 219 206 213 215 206 207 202 198 200 203 199 194 201 203 207 210 207 204 205 207 202 201 210 215 217
230 226 228 231 243 223 245 252 258 264 279 256 288 248 2 190 214 203 204 209 209 204 209 202 200 195 195 197 197 195 200 207 209 205 206 207 206 204 205 207 212 214 212 213
220 225 225 232 221 234 237 246 262 259 292 317 278 259 199 151 203 200 197 199 199 194 199 195 194 192 192 192 188 181 196 208 213 211 207 204 201 199 196 197 206 207 206 209
220 224 221 215 235 232 230 240 224 259 283 271 248 231 246 268 179 204 187 186 191 193 191 191 190 190 191 190 191 188 194 213 222 206 203 201 194 189 190 197 194 194 197 202
219 230 220 225 226 235 235 232 242 256 277 291 298 261 4 149 194 184 172 178 181 182 181 191 187 190 192 191 193 195 199 213 190 194 190 188 184 182 183 179 177 182 188 195
229 248 219 214 228 227 238 240 247 263 279 297 279 326 309 299 192 189 182 182 179 183 184 189 190 190 191 191 191 191 191 180 164 165 182 180 179 180 178 176 172 174 184 195
227 234 227 218 219 230 226 239 241 235 252 267 287 326 228 278 216 188 188 186 186 185 185 191 188 187 187 188 189 191 189 174 158 153 150 168 173 171 168 168 172 174 167 168
221 230 234 240 220 228 241 241 229 237 253 270 286 264 316 312 189 182 188 187 179 184 187 183 183 184 185 187 188 188 185 183 177 167 158 153 157 167 172 177 168 169 170 169
219 224 236 228 227 227 237 235 242 245 232 245 258 271 272 143 167 180 178 176 176 179 180 182 183 185 184 185 187 185 183 180 175 166 169 165 166 171 170 168 167 168 162 161
223 228 225 233 232 222 224 236 232 238 236 243 227 248 220 99 165 177 173 177 180 186 184 185 186 184 185 185 185 184 182 175 174 173 175 173 171 166 166 166 160 159 160 160
221 228 231 235 241 243 234 226 229 224 230 236 237 260 300 20 178 189 184 186 186 190 187 187 186 183 184 184 184 183 181 175 177 175 171 175 171 171 166 162 160 160 160 158
223 233 237 239 235 239 238 240 223 226 232 241 255 265 282 257 221 192 194 188 188 191 189 185 185 183 185 185 184 182 181 178 173 170 168 167 168 163 164 167 167 166 162 162
223 225 228 234 231 236 236 234 234 235 227 228 243 243 229 243 220 202 196 193 192 191 188 186 186 186 187 187 185 183 183 180 178 177 174 171 170 169 170 168 167 169 167 167
223 230 229 231 230 233 234 232 229 236 236 232 237 232 220 226 222 214 206 200 197 194 190 189 190 189 189 188 188 186 184 184 182 180 178 176 175 174 173 172 175 176 172 170
227 232 230 233 233 239 228 231 233 226 231 231 232 226 233 231 229 225 218 210 202 200 197 195 194 192 192 192 190 189 187 186 184 185 182 180 179 178 178 183 186 183 177 172
228 226 233 228 235 233 228 233 228 234 236 233 229 231 231 227 226 233 218 218 206 203 201 199 196 195 195 195 193 193 192 192 192 190 188 186 187 189 191 195 193 186 182 178
224 226 226 229 235 235 232 243 223 225 230 222 226 226 233 235 217 216 227 212 207 204 203 202 201 199 199 196 194 196 197 198 195 192 192 194 195 197 199 198 194 188 184 180
223 227 228 231 234 234 232 246 225 226 222 226 222 227 225 222 213 225 237 220 208 207 206 205 202 203 200 198 197 198 200 198 195 194 197 198 199 202 202 197 192 189 186 182
235 228 230 231 238 238 237 238 228 225 215 223 225 226 226 226 229 231 234 237 220 210 208 205 204 203 201 201 201 201 201 198 197 199 200 201 201 201 198 196 193 191 191 192
231 234 236 237 234 236 222 222 222 221 222 225 227 229 229 230 227 227 230 235 229 213 209 206 203 201 201 204 203 203 200 200 202 204 203 203 203 201 200 198 197 197 198 200
231 237 231 233 233 241 225 226 225 226 229 229 230 231 231 232 228 232 233 236 232 225 214 209 208 205 206 207 206 205 203 202 206 207 206 205 205 204 202 202 202 203 205 208
234 234 233 233 230 234 232 233 226 230 230 232 232 231 231 233 233 235 231 237 234 226 223 214 213 212 212 212 210 209 209 209 208 209 209 209 210 209 207 207 207 209 213 214